Torna al catalogo

STARLINK-5874

AttivoComunicazioniSSO
NORAD 56353·PAYLOAD·🇺🇸 United States

Lanciato Apr 27, 2023 da Vandenberg Space Force Base

Loading…

Prossimi Passaggi (prossime 24 ore)

TLE

AggiornatoSource: CelesTrak SupGP

Epoca: Sep 15, 2026, 02:13 UTC

1 56353C 23058AN  26258.09284722  .00547480  00000+0  29488-1 0  2584
2 56353  97.2849 252.2191 0001632  88.3597 349.0559 15.14623459    13

Traccia STARLINK-5874 in tempo reale con AllMySat

Download on the App Store